AirNav   Air Wisconsin pilot careers
 
 1301 users online  

TS81 Flanders Field Airport
Lott, Texas, USA


FAA INFORMATION EFFECTIVE 07 DECEMBER 2017

Location

FAA Identifier: TS81
Lat/Long: 31-09-26.8000N / 097-04-30.9000W
31-09.446667N / 097-04.515000W
31.1574444 / -97.0752500
(estimated)
Elevation: 460 ft. / 140 m (estimated)
From city: 3 miles SW of LOTT, TX
Time zone: UTC +0 (year round; does not observe DST)
Zip code: 76656

Airport Operations

Airport use: Private use. Permission required prior to landing
Activation date: 09/2017
Control tower: no
ARTCC: FORT WORTH CENTER
FSS: FORT WORTH FLIGHT SERVICE STATION
Attendance: 
Segmented circle: no

Airport Communications

WX AWOS-3PT at TPL (17 nm W): 134.975 (254-774-8337)
WX AWOS-3PT at T35 (18 nm S): 124.1 (254-605-0856)

Nearby radio navigation aids

VOR radial/distance  VOR name  Freq  Var
TPLr091/18.2TEMPLE VOR/DME110.4009E
ACTr153/31.9WACO VORTAC115.3009E
GNLr222/37.1GROESBECK VOR/DME108.8005E
GRKr072/38.7GRAY VOR/DME111.8007E

 
NDB name  Hdg/Dist  Freq  Var  ID
ROBINSON174/20.840007EROB .-. --- -...
HOOD080/32.734707EHLR .... .-.. .-.

Airport Services

Runway Information

Runway 17/35

Dimensions: 2265 x 60 ft. / 690 x 18 m
Surface: turf
RUNWAY 17  RUNWAY 35
Traffic pattern: leftleft

Airport Ownership and Management from official FAA records

Ownership: Privately-owned
Owner: MATTHEW WITT
402 COUNTY ROAD 489
LOTT, TX 76656
Phone 254-495-7963
WINGANDPROP@YAHOO.COM
Manager: MATTHEW WITT
483 KASH DERRICK DR
CHINA SPRING, TX 76633
Phone 254-495-7963
WINGANDPROP@YAHOO.COM

Instrument Procedures

There are no published instrument procedures at TS81.

Some nearby airports with instrument procedures:

T15 - Marlin Airport (16 nm NE)
KTPL - Draughon-Miller Central Texas Regional Airport (17 nm W)
KPWG - Mc Gregor Executive Airport (23 nm NW)
KACT - Waco Regional Airport (28 nm N)
KCNW - TSTC Waco Airport (29 nm N)
 
Loc | Ops | Rwys | IFR | FBO | Links
Com | Nav | Svcs | Stats | Notes


 
Aerial photo
No photo
 
Airport distance calculator
Flying to Flanders Field Airport? Find the distance to fly.

From to TS81

Sunrise and sunset
Times for 18-Dec-2017
 Zulu (UTC)
Morning civil twilight12:55
Sunrise13:22
Sunset23:28
Evening civil twilight23:54

Current date and time
Zulu (UTC)  18-Dec-2017 14:38:06
 
METAR
KTPL 
17nm W 
181351Z AUTO 10003KT 1/2SM FG OVC003 09/09 A3019 RMK AO2 SLP240 T00940094 RVRNO
KT35 
18nm S 
181415Z AUTO 09003KT 1SM BR OVC003 10/10 A3019 RMK AO2 T01030102
KPWG 
22nm NW 
181356Z AUTO 03003KT 1/4SM FG OVC002 09/09 A3019 RMK AO2 SLP240 T00890089
KCNW 
29nm N 
181355Z 00000KT 1SM FG OVC002 08/08 A3019
KACT 
29nm N 
181351Z 05006KT 1/4SM FG VV002 08/08 A3019 RMK AO2 SLP221 T00830078
KLHB 
29nm SE 
181420Z AUTO 00000KT 2SM BR OVC002 11/11 A3021 RMK AO2 T01050105
KILE 
31nm W 
181356Z AUTO 07003KT 1/4SM FG OVC002 09/09 A3018 RMK AO2 SLP245 T00890089
KHLR 
33nm W 
181358Z AUTO 07004KT 1/4SM FG VV001 09/09 A3014 RMK AO2 SLP207 T00860086 RVRNO
TAF
KACT 
29nm N 
181512Z 1815/1912 12004KT 1SM BR OVC003 FM181700 13005KT 3SM BR OVC006 FM182000 15006KT 6SM BR BKN012 FM190200 15006KT 5SM BR OVC008 FM190500 16007KT 2SM -RA BR OVC004
NOTAMs
Click for the latest NOTAMs
NOTAMs are issued by the DoD/FAA and will open in a separate window not controlled by AirNav.

 

 
 

Would you like to see your business listed on this page?

 If your business provides an interesting product or service to pilots, flight crews, aircraft, or users of the Flanders Field Airport, you should consider listing it here.  To start the listing process, click on the button below
 
Add a business
 

Other Pages about Flanders Field Airport

Update a link
 
Copyright © AirNav, LLC. All rights reserved. Privacy Policy  Contact